����,���ϕ���(m/s),���ϕ���,�ő�u�ԕ���(m/s),�ő啗��������,�C��(��),���x(%),10���Ԉړ��ώZ�J��(mm),1���Ԉړ��ώZ�J��(mm),���J��(mm),�݌v�J��(mm)
2020-04-27T00:00:00+09:00,1.1,�k��,1.9,���k��,12.6,72.7,0,0,0,0
2020-04-27T00:01:00+09:00,1.2,�k��,2.7,�k��,12.6,72.9,0,0,0,0
2020-04-27T00:02:00+09:00,1.3,�k��,2.7,�k��,12.6,73.2,0,0,0,0
2020-04-27T00:03:00+09:00,1.5,�k��,3.1,���k��,12.5,73.3,0,0,0,0
2020-04-27T00:04:00+09:00,1.6,�k��,3.1,���k��,12.5,73.5,0,0,0,0
2020-04-27T00:05:00+09:00,1.8,�k��,3.5,���k��,12.5,73.7,0,0,0,0
2020-04-27T00:06:00+09:00,1.9,�k��,3.5,���k��,12.5,73.8,0,0,0,0
2020-04-27T00:07:00+09:00,2,���k��,3.5,���k��,12.5,74,0,0,0,0
2020-04-27T00:08:00+09:00,2.1,���k��,3.5,���k��,12.5,73.9,0,0,0,0
2020-04-27T00:09:00+09:00,2.2,���k��,3.5,���k��,12.5,73.8,0,0,0,0
2020-04-27T00:10:00+09:00,2.3,���k��,3.8,�k��,12.5,73.9,0,0,0,0
2020-04-27T00:11:00+09:00,2.4,���k��,3.8,�k��,12.5,74,0,0,0,0
2020-04-27T00:12:00+09:00,2.4,���k��,3.8,�k��,12.5,74.1,0,0,0,0
2020-04-27T00:13:00+09:00,2.4,���k��,3.8,�k��,12.4,74.3,0,0,0,0
2020-04-27T00:14:00+09:00,2.3,���k��,3.8,�k��,12.4,74.3,0,0,0,0
2020-04-27T00:15:00+09:00,2.3,���k��,3.8,�k��,12.4,74.4,0,0,0,0
2020-04-27T00:16:00+09:00,2.3,���k��,3.8,�k��,12.4,74.4,0,0,0,0
2020-04-27T00:17:00+09:00,2.3,���k��,3.8,�k��,12.4,74.2,0,0,0,0
2020-04-27T00:18:00+09:00,2.2,�k��,3.8,�k��,12.4,74.3,0,0,0,0
2020-04-27T00:19:00+09:00,2.2,�k��,3.8,�k��,12.4,74.6,0,0,0,0
2020-04-27T00:20:00+09:00,2,�k��,3.6,�k��,12.4,74.3,0,0,0,0
2020-04-27T00:21:00+09:00,2,�k��,3.6,�k��,12.4,74.5,0,0,0,0
2020-04-27T00:22:00+09:00,2,���k��,3.6,�k��,12.4,74.5,0,0,0,0
2020-04-27T00:23:00+09:00,2,���k��,3.8,���k��,12.3,74.6,0,0,0,0
2020-04-27T00:24:00+09:00,2.1,���k��,3.8,���k��,12.3,74.6,0,0,0,0
2020-04-27T00:25:00+09:00,2.1,���k��,3.8,���k��,12.3,74.6,0,0,0,0
2020-04-27T00:26:00+09:00,2.1,���k��,3.9,���k��,12.3,74.6,0,0,0,0
2020-04-27T00:27:00+09:00,2.2,���k��,4.3,���k��,12.3,74.6,0,0,0,0
2020-04-27T00:28:00+09:00,2.3,���k��,4.6,���k��,12.3,74.4,0,0,0,0
2020-04-27T00:29:00+09:00,2.5,���k��,4.6,���k��,12.3,74.3,0,0,0,0
2020-04-27T00:30:00+09:00,2.7,���k��,4.6,���k��,12.3,74.4,0,0,0,0
2020-04-27T00:31:00+09:00,2.8,���k��,4.6,���k��,12.3,74.3,0,0,0,0
2020-04-27T00:32:00+09:00,2.8,���k��,4.6,���k��,12.3,74.4,0,0,0,0
2020-04-27T00:33:00+09:00,2.7,���k��,4.6,���k��,12.3,74.5,0,0,0,0
2020-04-27T00:34:00+09:00,2.6,���k��,4.6,���k��,12.2,74.7,0,0,0,0
2020-04-27T00:35:00+09:00,2.6,���k��,4.6,���k��,12.2,74.6,0,0,0,0
2020-04-27T00:36:00+09:00,2.7,���k��,4.6,���k��,12.2,74.5,0,0,0,0
2020-04-27T00:37:00+09:00,2.7,���k��,4.6,���k��,12.2,74.5,0,0,0,0
2020-04-27T00:38:00+09:00,2.7,���k��,4.4,���k��,12.2,74.2,0,0,0,0
2020-04-27T00:39:00+09:00,2.6,�k��,4.4,���k��,12.2,74.3,0,0,0,0
2020-04-27T00:40:00+09:00,2.5,�k��,4.1,�k��,12.2,74.4,0,0,0,0
2020-04-27T00:41:00+09:00,2.4,�k��,4.1,�k��,12.2,74.5,0,0,0,0
2020-04-27T00:42:00+09:00,2.3,�k��,4.1,�k��,12.2,74.3,0,0,0,0
2020-04-27T00:43:00+09:00,2.3,�k��,4.1,�k��,12.2,74.3,0,0,0,0
2020-04-27T00:44:00+09:00,2.3,�k��,4.1,�k��,12.2,74.3,0,0,0,0
2020-04-27T00:45:00+09:00,2.3,�k��,4.1,�k��,12.2,74.5,0,0,0,0
2020-04-27T00:46:00+09:00,2.2,�k��,4.1,�k��,12.1,74.5,0,0,0,0
2020-04-27T00:47:00+09:00,2.1,�k��,3.8,�k��,12.1,74.7,0,0,0,0
2020-04-27T00:48:00+09:00,2.1,�k��,3.6,�k��,12.1,74.7,0,0,0,0
2020-04-27T00:49:00+09:00,2,�k��,3.3,�k��,12.1,74.8,0,0,0,0
2020-04-27T00:50:00+09:00,2,�k��,3.3,�k��,12.1,74.9,0,0,0,0
2020-04-27T00:51:00+09:00,2,�k��,3.3,�k��,12.1,74.7,0,0,0,0
2020-04-27T00:52:00+09:00,2.1,�k��,3.3,�k��,12.1,74.8,0,0,0,0
2020-04-27T00:53:00+09:00,2.2,�k��,3.4,�k��,12.1,75.1,0,0,0,0
2020-04-27T00:54:00+09:00,2.3,�k��,3.4,�k��,12.1,74.7,0,0,0,0
2020-04-27T00:55:00+09:00,2.3,�k��,3.4,�k��,12.1,74.8,0,0,0,0
2020-04-27T00:56:00+09:00,2.3,�k��,3.4,�k��,12,74.9,0,0,0,0
2020-04-27T00:57:00+09:00,2.3,�k��,3.4,�k��,12,75,0,0,0,0
2020-04-27T00:58:00+09:00,2.3,�k��,3.4,�k��,12,74.7,0,0,0,0
2020-04-27T00:59:00+09:00,2.4,�k��,3.4,�k��,12,74.7,0,0,0,0
2020-04-27T01:00:00+09:00,2.4,�k��,3.4,�k��,12,74.5,0,0,0,0
2020-04-27T01:01:00+09:00,2.4,�k��,3.4,�k��,12,74.7,0,0,0,0
2020-04-27T01:02:00+09:00,2.4,�k��,3.4,�k��,12,74.7,0,0,0,0
2020-04-27T01:03:00+09:00,2.4,�k��,3.3,���k��,12,74.4,0,0,0,0
2020-04-27T01:04:00+09:00,2.4,�k��,3.3,���k��,12,74.1,0,0,0,0
2020-04-27T01:05:00+09:00,2.3,�k��,3.3,���k��,12.1,74,0,0,0,0
2020-04-27T01:06:00+09:00,2.2,�k��,3.3,���k��,12.1,74,0,0,0,0
2020-04-27T01:07:00+09:00,2.2,�k��,3.3,���k��,12.1,74,0,0,0,0
2020-04-27T01:08:00+09:00,2.1,���k��,3.3,���k��,12,73.9,0,0,0,0
2020-04-27T01:09:00+09:00,2.1,�k��,3.3,���k��,12,73.9,0,0,0,0
2020-04-27T01:10:00+09:00,2.1,���k��,3.7,�k��,12,73.8,0,0,0,0
2020-04-27T01:11:00+09:00,2.2,�k��,3.8,�k��,12,73.5,0,0,0,0
2020-04-27T01:12:00+09:00,2.2,�k��,3.8,�k��,12,73.6,0,0,0,0
2020-04-27T01:13:00+09:00,2.2,�k��,3.8,�k��,12,73.8,0,0,0,0
2020-04-27T01:14:00+09:00,2.2,�k��,3.8,�k��,12,73.6,0,0,0,0
2020-04-27T01:15:00+09:00,2.2,�k��,3.8,�k��,12,73.5,0,0,0,0
2020-04-27T01:16:00+09:00,2.2,�k��,3.8,�k��,12,73.4,0,0,0,0
2020-04-27T01:17:00+09:00,2.3,�k��,3.8,�k��,12,73.4,0,0,0,0
2020-04-27T01:18:00+09:00,2.3,�k��,3.8,�k��,12,73.5,0,0,0,0
2020-04-27T01:19:00+09:00,2.3,�k��,3.8,�k��,12,73.7,0,0,0,0
2020-04-27T01:20:00+09:00,2.2,�k��,3.8,�k��,11.9,74.1,0,0,0,0
2020-04-27T01:21:00+09:00,2.1,�k��,3.3,�k��,11.9,74,0,0,0,0
2020-04-27T01:22:00+09:00,2,�k��,3.3,�k��,11.9,74,0,0,0,0
2020-04-27T01:23:00+09:00,2,�k��,3.3,�k��,11.9,74.1,0,0,0,0
2020-04-27T01:24:00+09:00,2,�k��,3.3,�k��,11.8,74.3,0,0,0,0
2020-04-27T01:25:00+09:00,1.9,�k��,3.3,�k��,11.8,74.5,0,0,0,0
2020-04-27T01:26:00+09:00,1.9,�k��,3.3,�k��,11.8,74.5,0,0,0,0
2020-04-27T01:27:00+09:00,1.8,�k��,2.8,�k��,11.8,74.6,0,0,0,0
2020-04-27T01:28:00+09:00,1.7,�k��,2.7,�k��,11.8,74.6,0,0,0,0
2020-04-27T01:29:00+09:00,1.7,�k��,2.7,�k��,11.7,74.8,0,0,0,0
2020-04-27T01:30:00+09:00,1.7,�k��,2.7,�k��,11.7,74.9,0,0,0,0
2020-04-27T01:31:00+09:00,1.6,�k��,2.7,�k��,11.7,74.9,0,0,0,0
2020-04-27T01:32:00+09:00,1.5,�k��,2.7,�k��,11.7,75,0,0,0,0
2020-04-27T01:33:00+09:00,1.4,�k��,2.7,�k��,11.7,75.2,0,0,0,0
2020-04-27T01:34:00+09:00,1.2,�k��,2.3,�k��,11.6,75.7,0,0,0,0
2020-04-27T01:35:00+09:00,1.1,�k��,2,�k�k��,11.6,76.6,0,0,0,0
2020-04-27T01:36:00+09:00,1,�k��,2,�k�k��,11.6,76.6,0,0,0,0
2020-04-27T01:37:00+09:00,0.9,���k��,2,�k�k��,11.5,76.6,0,0,0,0
2020-04-27T01:38:00+09:00,0.8,���k��,2,�k�k��,11.5,77,0,0,0,0
2020-04-27T01:39:00+09:00,0.7,���k��,2,�k�k��,11.5,77.1,0,0,0,0
2020-04-27T01:40:00+09:00,0.6,���k��,1.4,�k��,11.4,77.4,0,0,0,0
2020-04-27T01:41:00+09:00,0.6,���k��,1.4,�k��,11.4,77.6,0,0,0,0
2020-04-27T01:42:00+09:00,0.6,���k��,1.3,�쓌,11.4,77.4,0,0,0,0
2020-04-27T01:43:00+09:00,0.6,���k��,1.5,�k��,11.5,77.3,0,0,0,0
2020-04-27T01:44:00+09:00,0.6,���k��,1.5,�k��,11.4,77.3,0,0,0,0
2020-04-27T01:45:00+09:00,0.6,���k��,1.7,���쓌,11.4,77.5,0,0,0,0
2020-04-27T01:46:00+09:00,0.7,��,1.7,���쓌,11.4,77.3,0,0,0,0
2020-04-27T01:47:00+09:00,0.7,���k��,1.7,���쓌,11.3,77.4,0,0,0,0
2020-04-27T01:48:00+09:00,0.7,���k��,1.7,���쓌,11.3,77.7,0,0,0,0
2020-04-27T01:49:00+09:00,0.7,���k��,1.7,���쓌,11.3,77.7,0,0,0,0
2020-04-27T01:50:00+09:00,0.7,���k��,1.7,���쓌,11.2,77.8,0,0,0,0
2020-04-27T01:51:00+09:00,0.7,���k��,1.7,���쓌,11.3,78,0,0,0,0
2020-04-27T01:52:00+09:00,0.7,���k��,1.7,���쓌,11.2,78.1,0,0,0,0
2020-04-27T01:53:00+09:00,0.7,��,1.7,���쓌,11.2,78.4,0,0,0,0
2020-04-27T01:54:00+09:00,0.7,��,1.7,���쓌,11.1,78.6,0,0,0,0
2020-04-27T01:55:00+09:00,0.7,��,1.2,���쓌,11.1,78.9,0,0,0,0
2020-04-27T01:56:00+09:00,0.7,��,1.3,��,11,79,0,0,0,0
2020-04-27T01:57:00+09:00,0.7,��,1.3,��,10.8,79.3,0,0,0,0
2020-04-27T01:58:00+09:00,0.7,��,1.4,�쓌,10.6,80.2,0,0,0,0
2020-04-27T01:59:00+09:00,0.8,���쓌,1.5,��쓌,10.5,80.9,0,0,0,0
2020-04-27T02:00:00+09:00,0.8,���쓌,1.5,��쓌,10.4,81.5,0,0,0,0
2020-04-27T02:01:00+09:00,0.9,���쓌,1.6,���쓌,10.5,82.4,0,0,0,0
2020-04-27T02:02:00+09:00,0.9,���쓌,1.6,���쓌,10.6,81.9,0,0,0,0
2020-04-27T02:03:00+09:00,1,���쓌,1.6,���쓌,10.7,81.9,0,0,0,0
2020-04-27T02:04:00+09:00,1,���쓌,1.6,���쓌,10.6,81.7,0,0,0,0
2020-04-27T02:05:00+09:00,1,���쓌,1.6,���쓌,10.6,82.2,0,0,0,0
2020-04-27T02:06:00+09:00,1.1,���쓌,1.6,���쓌,10.6,82.3,0,0,0,0
2020-04-27T02:07:00+09:00,1.1,���쓌,1.6,���쓌,10.6,82.3,0,0,0,0
2020-04-27T02:08:00+09:00,1,���쓌,1.6,���쓌,10.7,82.2,0,0,0,0
2020-04-27T02:09:00+09:00,1,���쓌,1.6,���쓌,10.6,81.5,0,0,0,0
2020-04-27T02:10:00+09:00,1,���쓌,1.6,���쓌,10.5,81.7,0,0,0,0
2020-04-27T02:11:00+09:00,0.9,���쓌,1.5,��,10.5,82.2,0,0,0,0
2020-04-27T02:12:00+09:00,0.9,���쓌,1.5,��,10.4,82.4,0,0,0,0
2020-04-27T02:13:00+09:00,0.9,���쓌,1.5,��,10.4,82.5,0,0,0,0
2020-04-27T02:14:00+09:00,0.9,���쓌,1.8,��,10.4,82.9,0,0,0,0
2020-04-27T02:15:00+09:00,0.9,���쓌,1.8,��,10.4,83.1,0,0,0,0
2020-04-27T02:16:00+09:00,0.9,���쓌,1.8,��,10.3,82.8,0,0,0,0
2020-04-27T02:17:00+09:00,0.9,�쓌,1.8,��,10.2,83,0,0,0,0
2020-04-27T02:18:00+09:00,0.9,�쓌,1.8,��,10.2,83.2,0,0,0,0
2020-04-27T02:19:00+09:00,0.9,�쓌,1.8,��,10.1,83.5,0,0,0,0
2020-04-27T02:20:00+09:00,1,�쓌,1.8,��,10.2,84,0,0,0,0
2020-04-27T02:21:00+09:00,1,�쓌,1.8,��,10.3,84.5,0,0,0,0
2020-04-27T02:22:00+09:00,1,���쓌,1.8,��,10.5,83.8,0,0,0,0
2020-04-27T02:23:00+09:00,1,���쓌,1.8,��,10.4,83.1,0,0,0,0
2020-04-27T02:24:00+09:00,1,���쓌,1.5,��,10.4,82.8,0,0,0,0
2020-04-27T02:25:00+09:00,1,���쓌,1.5,��,10.3,82.9,0,0,0,0
2020-04-27T02:26:00+09:00,0.9,���쓌,1.5,��,10.3,83.1,0,0,0,0
2020-04-27T02:27:00+09:00,0.9,���쓌,1.5,��,10.3,83,0,0,0,0
2020-04-27T02:28:00+09:00,0.8,���쓌,1.5,��,10.2,83,0,0,0,0
2020-04-27T02:29:00+09:00,0.7,���쓌,1.5,��,10.1,83.1,0,0,0,0
2020-04-27T02:30:00+09:00,0.6,���쓌,1.5,��,10,83.7,0,0,0,0
2020-04-27T02:31:00+09:00,0.5,���쓌,1.5,��,10.1,84.3,0,0,0,0
2020-04-27T02:32:00+09:00,0.4,���쓌,1.1,���쓌,10.1,84.5,0,0,0,0
2020-04-27T02:33:00+09:00,0.3,���쓌,1.1,���쓌,10.1,84.5,0,0,0,0
2020-04-27T02:34:00+09:00,0.2,�É�,0.9,��,10.1,84.6,0,0,0,0
2020-04-27T02:35:00+09:00,0.2,�É�,0.9,��,10.1,84.9,0,0,0,0
2020-04-27T02:36:00+09:00,0.1,�É�,0.6,���쓌,10,84.9,0,0,0,0
2020-04-27T02:37:00+09:00,0.1,�É�,0.6,�쓌,10.1,85.1,0,0,0,0
2020-04-27T02:38:00+09:00,0.2,�É�,0.7,���쓌,10.1,85.1,0,0,0,0
2020-04-27T02:39:00+09:00,0.2,�É�,0.8,���쓌,10.1,85,0,0,0,0
2020-04-27T02:40:00+09:00,0.3,���쓌,0.9,���쓌,10,84.9,0,0,0,0
2020-04-27T02:41:00+09:00,0.3,���쓌,0.9,���쓌,10,84.8,0,0,0,0
2020-04-27T02:42:00+09:00,0.4,���쓌,0.9,���쓌,9.9,85.3,0,0,0,0
2020-04-27T02:43:00+09:00,0.4,���쓌,0.9,���쓌,9.8,84.8,0,0,0,0
2020-04-27T02:44:00+09:00,0.5,���쓌,0.9,���쓌,9.7,85.3,0,0,0,0
2020-04-27T02:45:00+09:00,0.5,�쓌,1,���쓌,9.7,86.3,0,0,0,0
2020-04-27T02:46:00+09:00,0.6,�쓌,1,���쓌,9.8,86.9,0,0,0,0
2020-04-27T02:47:00+09:00,0.6,���쓌,1,���쓌,9.8,87,0,0,0,0
2020-04-27T02:48:00+09:00,0.6,���쓌,1,���쓌,9.8,86.7,0,0,0,0
2020-04-27T02:49:00+09:00,0.7,���쓌,1,���쓌,9.8,86.7,0,0,0,0
2020-04-27T02:50:00+09:00,0.7,���쓌,1,���쓌,9.8,86.6,0,0,0,0
2020-04-27T02:51:00+09:00,0.7,���쓌,1,���쓌,9.8,86.6,0,0,0,0
2020-04-27T02:52:00+09:00,0.7,���쓌,1,���쓌,9.7,86.6,0,0,0,0
2020-04-27T02:53:00+09:00,0.7,���쓌,1,���쓌,9.6,86.8,0,0,0,0
2020-04-27T02:54:00+09:00,0.7,���쓌,1,���쓌,9.7,87,0,0,0,0
2020-04-27T02:55:00+09:00,0.7,���쓌,1,���쓌,9.6,87.1,0,0,0,0
2020-04-27T02:56:00+09:00,0.7,���쓌,1,���쓌,9.6,87,0,0,0,0
2020-04-27T02:57:00+09:00,0.7,���쓌,1,���쓌,9.7,87.4,0,0,0,0
2020-04-27T02:58:00+09:00,0.7,���쓌,1,���쓌,9.7,87.5,0,0,0,0
2020-04-27T02:59:00+09:00,0.6,���쓌,1,���쓌,9.6,87.1,0,0,0,0
2020-04-27T03:00:00+09:00,0.6,���쓌,1,���쓌,9.6,87.1,0,0,0,0
2020-04-27T03:01:00+09:00,0.6,���쓌,1,���쓌,9.6,87.3,0,0,0,0
2020-04-27T03:02:00+09:00,0.6,���쓌,1.1,�쓌,9.6,87.5,0,0,0,0
2020-04-27T03:03:00+09:00,0.6,���쓌,1.2,���쓌,9.6,87.5,0,0,0,0
2020-04-27T03:04:00+09:00,0.6,���쓌,1.2,���쓌,9.7,87.4,0,0,0,0
2020-04-27T03:05:00+09:00,0.6,���쓌,1.2,���쓌,9.6,87.3,0,0,0,0
2020-04-27T03:06:00+09:00,0.7,���쓌,1.2,���쓌,9.6,87.6,0,0,0,0
2020-04-27T03:07:00+09:00,0.7,���쓌,1.6,��쓌,9.6,87.6,0,0,0,0
2020-04-27T03:08:00+09:00,0.7,���쓌,1.7,�쓌,9.6,87.6,0,0,0,0
2020-04-27T03:09:00+09:00,0.8,�쓌,1.7,�쓌,9.7,87.7,0,0,0,0
2020-04-27T03:10:00+09:00,0.9,�쓌,1.8,��쓌,9.6,87.6,0,0,0,0
2020-04-27T03:11:00+09:00,0.9,�쓌,1.8,��쓌,9.6,87.6,0,0,0,0
2020-04-27T03:12:00+09:00,0.9,�쓌,1.8,��쓌,9.6,88,0,0,0,0
2020-04-27T03:13:00+09:00,0.9,�쓌,1.8,��쓌,9.6,88,0,0,0,0
2020-04-27T03:14:00+09:00,1,�쓌,1.8,��쓌,9.7,88,0,0,0,0
2020-04-27T03:15:00+09:00,1,�쓌,1.9,��쓌,9.7,87.9,0,0,0,0
2020-04-27T03:16:00+09:00,1.1,�쓌,1.9,��쓌,9.7,87.9,0,0,0,0
2020-04-27T03:17:00+09:00,1,�쓌,1.9,��쓌,9.7,87.5,0,0,0,0
2020-04-27T03:18:00+09:00,1,�쓌,1.9,��쓌,9.8,87.4,0,0,0,0
2020-04-27T03:19:00+09:00,1,�쓌,1.9,��쓌,9.7,87.4,0,0,0,0
2020-04-27T03:20:00+09:00,0.9,�쓌,1.9,��쓌,9.7,86.9,0,0,0,0
2020-04-27T03:21:00+09:00,0.9,���쓌,1.9,��쓌,9.7,87.1,0,0,0,0
2020-04-27T03:22:00+09:00,1,���쓌,1.9,��쓌,9.7,87.2,0,0,0,0
2020-04-27T03:23:00+09:00,0.9,���쓌,1.9,��쓌,9.7,87,0,0,0,0
2020-04-27T03:24:00+09:00,0.9,���쓌,1.9,��쓌,9.8,87.1,0,0,0,0
2020-04-27T03:25:00+09:00,0.9,���쓌,1.9,�쓌,9.7,86.8,0,0,0,0
2020-04-27T03:26:00+09:00,1,���쓌,1.7,���쓌,9.7,86.7,0,0,0,0
2020-04-27T03:27:00+09:00,1,���쓌,1.7,���쓌,9.7,86.8,0,0,0,0
2020-04-27T03:28:00+09:00,1.1,���쓌,1.7,���쓌,9.7,87,0,0,0,0
2020-04-27T03:29:00+09:00,1.2,���쓌,1.7,���쓌,9.6,87,0,0,0,0
2020-04-27T03:30:00+09:00,1.3,���쓌,1.7,���쓌,9.6,87.1,0,0,0,0
2020-04-27T03:31:00+09:00,1.3,���쓌,1.7,���쓌,9.6,87.5,0,0,0,0
2020-04-27T03:32:00+09:00,1.3,���쓌,1.7,���쓌,9.6,87.7,0,0,0,0
2020-04-27T03:33:00+09:00,1.3,���쓌,1.7,���쓌,9.6,87.9,0,0,0,0
2020-04-27T03:34:00+09:00,1.3,�쓌,1.7,���쓌,9.7,88,0,0,0,0
2020-04-27T03:35:00+09:00,1.2,�쓌,1.7,���쓌,9.6,87.6,0,0,0,0
2020-04-27T03:36:00+09:00,1.1,�쓌,1.7,�쓌,9.6,87.6,0,0,0,0
2020-04-27T03:37:00+09:00,0.9,�쓌,1.7,�쓌,9.5,87.7,0,0,0,0
2020-04-27T03:38:00+09:00,0.8,���쓌,1.7,�쓌,9.4,87.5,0,0,0,0
2020-04-27T03:39:00+09:00,0.7,���쓌,1.7,�쓌,9.4,88.1,0,0,0,0
2020-04-27T03:40:00+09:00,0.7,���k��,1.6,�쓌,9.2,88,0,0,0,0
2020-04-27T03:41:00+09:00,0.7,�k�k��,1.8,�k�k��,9.2,88.4,0,0,0,0
2020-04-27T03:42:00+09:00,0.7,�k�k��,1.8,�k�k��,9.3,89,0,0,0,0
2020-04-27T03:43:00+09:00,0.7,�k�k��,1.8,�k�k��,9.2,89,0,0,0,0
2020-04-27T03:44:00+09:00,0.7,�k�k��,1.8,�k�k��,9.2,89.1,0,0,0,0
2020-04-27T03:45:00+09:00,0.8,�k�k��,1.8,�k�k��,9.2,89.4,0,0,0,0
2020-04-27T03:46:00+09:00,1,�k�k��,1.8,�k�k��,9.2,89.4,0,0,0,0
2020-04-27T03:47:00+09:00,1,�k��,1.8,�k�k��,9.3,89.6,0,0,0,0
2020-04-27T03:48:00+09:00,1.1,�k��,1.8,�k�k��,9.3,89.4,0,0,0,0
2020-04-27T03:49:00+09:00,1.2,�k��,1.8,�k�k��,9.2,89,0,0,0,0
2020-04-27T03:50:00+09:00,1.3,���k��,1.8,�k�k��,9.1,88.7,0,0,0,0
2020-04-27T03:51:00+09:00,1.3,���k��,1.9,�쓌,9.1,89,0,0,0,0
2020-04-27T03:52:00+09:00,1.2,��,1.9,�쓌,9.1,88.9,0,0,0,0
2020-04-27T03:53:00+09:00,1.2,��,1.9,�쓌,9.1,89.3,0,0,0,0
2020-04-27T03:54:00+09:00,1.2,���쓌,1.9,�쓌,9.1,89.2,0,0,0,0
2020-04-27T03:55:00+09:00,1.1,���쓌,1.9,�쓌,9.1,89,0,0,0,0
2020-04-27T03:56:00+09:00,1.1,�쓌,1.9,�쓌,9.1,89.2,0,0,0,0
2020-04-27T03:57:00+09:00,1,�쓌,1.9,�쓌,9.1,89.6,0,0,0,0
2020-04-27T03:58:00+09:00,0.9,�쓌,1.9,�쓌,9.1,89.6,0,0,0,0
2020-04-27T03:59:00+09:00,0.8,�쓌,1.9,�쓌,9.1,89.4,0,0,0,0
2020-04-27T04:00:00+09:00,0.8,�쓌,1.9,�쓌,9.2,89.9,0,0,0,0
2020-04-27T04:01:00+09:00,0.7,�쓌,1.2,�쓌,9.1,90.1,0,0,0,0
2020-04-27T04:02:00+09:00,0.7,�쓌,1.3,�쓌,9.1,90.3,0,0,0,0
2020-04-27T04:03:00+09:00,0.8,�쓌,1.5,�쓌,9.1,90.3,0,0,0,0
2020-04-27T04:04:00+09:00,0.8,�쓌,1.7,���쓌,9.1,90.2,0,0,0,0
2020-04-27T04:05:00+09:00,0.9,�쓌,1.7,���쓌,9,89.7,0,0,0,0
2020-04-27T04:06:00+09:00,1,�쓌,1.8,���쓌,8.9,89.6,0,0,0,0
2020-04-27T04:07:00+09:00,1.1,�쓌,1.8,���쓌,8.9,90,0,0,0,0
2020-04-27T04:08:00+09:00,1.2,�쓌,1.8,���쓌,9,90.3,0,0,0,0
2020-04-27T04:09:00+09:00,1.3,���쓌,1.8,���쓌,9,90.3,0,0,0,0
2020-04-27T04:10:00+09:00,1.4,���쓌,1.8,���쓌,9,90.3,0,0,0,0
2020-04-27T04:11:00+09:00,1.4,���쓌,1.8,���쓌,9.1,90.1,0,0,0,0
2020-04-27T04:12:00+09:00,1.4,���쓌,1.8,���쓌,9,89.8,0,0,0,0
2020-04-27T04:13:00+09:00,1.4,���쓌,1.8,���쓌,9,89.6,0,0,0,0
2020-04-27T04:14:00+09:00,1.4,���쓌,1.8,���쓌,9,89.7,0,0,0,0
2020-04-27T04:15:00+09:00,1.3,���쓌,1.8,���쓌,9,90,0,0,0,0
2020-04-27T04:16:00+09:00,1.2,���쓌,1.8,���쓌,9,89.7,0,0,0,0
2020-04-27T04:17:00+09:00,1,���쓌,1.6,���쓌,9,89.6,0,0,0,0
2020-04-27T04:18:00+09:00,1,���쓌,1.6,���쓌,8.9,89.4,0,0,0,0
2020-04-27T04:19:00+09:00,0.9,���쓌,1.6,���쓌,8.8,89.4,0,0,0,0
2020-04-27T04:20:00+09:00,0.8,���쓌,1.6,���쓌,8.8,89.4,0,0,0,0
2020-04-27T04:21:00+09:00,0.8,��,1.6,���쓌,8.8,89.7,0,0,0,0
2020-04-27T04:22:00+09:00,0.7,��,1.6,���쓌,8.7,89.5,0,0,0,0
2020-04-27T04:23:00+09:00,0.6,��,1.1,��,8.6,89.5,0,0,0,0
2020-04-27T04:24:00+09:00,0.5,���k��,1.1,��,8.5,89.9,0,0,0,0
2020-04-27T04:25:00+09:00,0.5,���k��,1.1,��,8.5,90.4,0,0,0,0
2020-04-27T04:26:00+09:00,0.4,���k��,1.1,��,8.6,91.2,0,0,0,0
2020-04-27T04:27:00+09:00,0.4,��,1.1,��,8.6,91.4,0,0,0,0
2020-04-27T04:28:00+09:00,0.5,��,1.3,�쓌,8.6,91.5,0,0,0,0
2020-04-27T04:29:00+09:00,0.6,��,1.4,���쓌,8.6,91.3,0,0,0,0
2020-04-27T04:30:00+09:00,0.6,��,1.4,���쓌,8.6,91,0,0,0,0
2020-04-27T04:31:00+09:00,0.7,��,1.4,���쓌,8.6,91.1,0,0,0,0
2020-04-27T04:32:00+09:00,0.7,���쓌,1.4,���쓌,8.7,91.2,0,0,0,0
2020-04-27T04:33:00+09:00,0.7,���쓌,1.4,���쓌,8.6,91.1,0,0,0,0
2020-04-27T04:34:00+09:00,0.8,���쓌,1.4,���쓌,8.8,91.7,0,0,0,0
2020-04-27T04:35:00+09:00,0.9,�쓌,1.4,���쓌,8.8,91.8,0,0,0,0
2020-04-27T04:36:00+09:00,1,�쓌,1.4,���쓌,8.9,91,0,0,0,0
2020-04-27T04:37:00+09:00,1,���쓌,1.4,���쓌,8.8,90.8,0,0,0,0
2020-04-27T04:38:00+09:00,0.9,���쓌,1.4,���쓌,8.9,90.7,0,0,0,0
2020-04-27T04:39:00+09:00,0.9,���쓌,1.3,���쓌,8.9,90.7,0,0,0,0
2020-04-27T04:40:00+09:00,0.8,���쓌,1.3,���쓌,8.8,90.6,0,0,0,0
2020-04-27T04:41:00+09:00,0.8,���쓌,1.3,���쓌,8.8,90.4,0,0,0,0
2020-04-27T04:42:00+09:00,0.8,���쓌,1.3,���쓌,8.8,90.5,0,0,0,0
2020-04-27T04:43:00+09:00,0.8,���쓌,1.3,���쓌,8.8,90.6,0,0,0,0
2020-04-27T04:44:00+09:00,0.8,���쓌,1.2,��,8.8,90.8,0,0,0,0
2020-04-27T04:45:00+09:00,0.8,���쓌,1.7,��,8.8,90.8,0,0,0,0
2020-04-27T04:46:00+09:00,0.8,���쓌,1.7,��,8.8,91,0,0,0,0
2020-04-27T04:47:00+09:00,0.9,���쓌,1.7,��,8.8,90.9,0,0,0,0
2020-04-27T04:48:00+09:00,0.9,���쓌,1.7,��,8.8,90.9,0,0,0,0
2020-04-27T04:49:00+09:00,0.9,���쓌,1.7,��,8.8,90.7,0,0,0,0
2020-04-27T04:50:00+09:00,1,��,1.7,��,8.8,90.7,0,0,0,0
2020-04-27T04:51:00+09:00,1,��,1.7,��,8.8,91,0,0,0,0
2020-04-27T04:52:00+09:00,1,��,1.7,��,8.8,91.1,0,0,0,0
2020-04-27T04:53:00+09:00,1,��,1.7,��,8.8,90.9,0,0,0,0
2020-04-27T04:54:00+09:00,1.1,��,1.7,��,8.8,90.8,0,0,0,0
2020-04-27T04:55:00+09:00,1.1,���쓌,1.7,���쓌,8.8,90.9,0,0,0,0
2020-04-27T04:56:00+09:00,1.1,���쓌,1.7,���쓌,8.8,91.2,0,0,0,0
2020-04-27T04:57:00+09:00,1.1,���쓌,1.7,���쓌,8.8,91.4,0,0,0,0
2020-04-27T04:58:00+09:00,1.1,���쓌,1.7,���쓌,8.9,91.4,0,0,0,0
2020-04-27T04:59:00+09:00,1.1,���쓌,1.7,���쓌,8.9,91.3,0,0,0,0
2020-04-27T05:00:00+09:00,1.1,���쓌,1.7,���쓌,8.9,91.2,0,0,0,0
2020-04-27T05:01:00+09:00,1,���쓌,1.7,���쓌,8.9,91.1,0,0,0,0
2020-04-27T05:02:00+09:00,1,���쓌,1.7,���쓌,8.9,91.1,0,0,0,0
2020-04-27T05:03:00+09:00,1,���쓌,1.7,���쓌,8.9,91,0,0,0,0
2020-04-27T05:04:00+09:00,0.9,���쓌,1.7,���쓌,8.9,90.9,0,0,0,0
2020-04-27T05:05:00+09:00,0.8,���쓌,1.6,���쓌,8.9,90.7,0,0,0,0
2020-04-27T05:06:00+09:00,0.8,���쓌,1.6,���쓌,8.9,90.6,0,0,0,0
2020-04-27T05:07:00+09:00,0.7,��,1.2,���쓌,8.9,90.6,0,0,0,0
2020-04-27T05:08:00+09:00,0.7,��,1.2,���쓌,8.9,90.7,0,0,0,0
2020-04-27T05:09:00+09:00,0.7,��,1.2,���쓌,8.9,90.5,0,0,0,0
2020-04-27T05:10:00+09:00,0.7,��,1.2,���쓌,9,90.6,0,0,0,0
2020-04-27T05:11:00+09:00,0.7,���쓌,1.2,���쓌,8.9,90.2,0,0,0,0
2020-04-27T05:12:00+09:00,0.7,���쓌,1.2,�쓌,8.8,90.2,0,0,0,0
2020-04-27T05:13:00+09:00,0.7,���쓌,1.2,�쓌,8.8,90.6,0,0,0,0
2020-04-27T05:14:00+09:00,0.7,���쓌,1.2,�쓌,8.9,91,0,0,0,0
2020-04-27T05:15:00+09:00,0.7,���쓌,1.2,�쓌,8.8,90.9,0,0,0,0
2020-04-27T05:16:00+09:00,0.7,���쓌,1.2,�쓌,8.8,90.9,0,0,0,0
2020-04-27T05:17:00+09:00,0.8,�쓌,1.2,�쓌,8.8,91,0,0,0,0
2020-04-27T05:18:00+09:00,0.7,�쓌,1.2,�쓌,8.8,91.2,0,0,0,0
2020-04-27T05:19:00+09:00,0.7,�쓌,1.2,��쓌,8.8,91.1,0,0,0,0
2020-04-27T05:20:00+09:00,0.7,�쓌,1.2,��쓌,8.8,91.2,0,0,0,0
2020-04-27T05:21:00+09:00,0.7,�쓌,1.2,��쓌,8.8,91.1,0,0,0,0
2020-04-27T05:22:00+09:00,0.6,�쓌,1.2,��쓌,8.8,91.1,0,0,0,0
2020-04-27T05:23:00+09:00,0.6,�쓌,1.2,��쓌,8.8,91.4,0,0,0,0
2020-04-27T05:24:00+09:00,0.6,�쓌,1.2,��쓌,8.8,91.5,0,0,0,0
2020-04-27T05:25:00+09:00,0.6,�쓌,1.3,��쓌,8.9,91.5,0,0,0,0
2020-04-27T05:26:00+09:00,0.6,�쓌,1.3,��쓌,8.8,91.3,0,0,0,0
2020-04-27T05:27:00+09:00,0.7,�쓌,1.3,��쓌,8.8,91.4,0,0,0,0
2020-04-27T05:28:00+09:00,0.7,�쓌,1.3,��쓌,8.8,91.6,0,0,0,0
2020-04-27T05:29:00+09:00,0.8,�쓌,1.4,���쓌,8.8,91.6,0,0,0,0
2020-04-27T05:30:00+09:00,0.8,�쓌,1.4,���쓌,8.8,91.5,0,0,0,0
2020-04-27T05:31:00+09:00,0.9,�쓌,1.5,�쓌,8.8,91.4,0,0,0,0
2020-04-27T05:32:00+09:00,1,�쓌,1.5,�쓌,8.8,91.4,0,0,0,0
2020-04-27T05:33:00+09:00,1.1,�쓌,1.6,���쓌,8.8,91.4,0,0,0,0
2020-04-27T05:34:00+09:00,1.1,�쓌,1.6,���쓌,8.8,91.4,0,0,0,0
2020-04-27T05:35:00+09:00,1.2,�쓌,1.6,���쓌,8.8,91.2,0,0,0,0
2020-04-27T05:36:00+09:00,1.2,�쓌,1.6,���쓌,8.8,91.3,0,0,0,0
2020-04-27T05:37:00+09:00,1.2,�쓌,1.6,���쓌,8.8,91.4,0,0,0,0
2020-04-27T05:38:00+09:00,1.1,���쓌,1.6,���쓌,8.8,91.4,0,0,0,0
2020-04-27T05:39:00+09:00,1.1,���쓌,1.6,���쓌,8.7,91,0,0,0,0
2020-04-27T05:40:00+09:00,1.1,���쓌,1.6,���쓌,8.5,90.3,0,0,0,0
2020-04-27T05:41:00+09:00,1,���쓌,1.6,���쓌,8.3,90,0,0,0,0
2020-04-27T05:42:00+09:00,1,��,1.6,���쓌,8.4,91,0,0,0,0
2020-04-27T05:43:00+09:00,0.9,��,1.6,�쓌,8.5,91.8,0,0,0,0
2020-04-27T05:44:00+09:00,0.9,��,1.6,�쓌,8.5,92.2,0,0,0,0
2020-04-27T05:45:00+09:00,0.9,��,1.4,���쓌,8.5,92,0,0,0,0
2020-04-27T05:46:00+09:00,0.9,��,1.4,���쓌,8.5,91.8,0,0,0,0
2020-04-27T05:47:00+09:00,0.9,��,1.4,���쓌,8.5,91.5,0,0,0,0
2020-04-27T05:48:00+09:00,1,��,1.4,���쓌,8.5,91.6,0,0,0,0
2020-04-27T05:49:00+09:00,1,��,1.4,���쓌,8.6,91.9,0,0,0,0
2020-04-27T05:50:00+09:00,0.9,��,1.4,���쓌,8.6,91.5,0,0,0,0
2020-04-27T05:51:00+09:00,0.9,��,1.4,���쓌,8.6,91.2,0,0,0,0
2020-04-27T05:52:00+09:00,0.9,���쓌,1.4,���쓌,8.6,91.3,0,0,0,0
2020-04-27T05:53:00+09:00,0.8,���쓌,1.4,���쓌,8.6,91.3,0,0,0,0
2020-04-27T05:54:00+09:00,0.7,��,1.4,���쓌,8.6,91.2,0,0,0,0
2020-04-27T05:55:00+09:00,0.6,���쓌,1.4,���쓌,8.5,91,0,0,0,0
2020-04-27T05:56:00+09:00,0.5,���쓌,1.4,���쓌,8.4,90.2,0,0,0,0
2020-04-27T05:57:00+09:00,0.5,���쓌,1.1,���쓌,8.4,90.8,0,0,0,0
2020-04-27T05:58:00+09:00,0.5,���쓌,1,���쓌,8.5,91.7,0,0,0,0
2020-04-27T05:59:00+09:00,0.5,���쓌,1,���쓌,8.5,91.9,0,0,0,0
2020-04-27T06:00:00+09:00,0.5,���쓌,1.1,���쓌,8.6,91.8,0,0,0,0
2020-04-27T06:01:00+09:00,0.6,���쓌,1.2,���쓌,8.6,91.6,0,0,0,0
2020-04-27T06:02:00+09:00,0.6,���쓌,1.6,���쓌,8.5,91.3,0,0,0,0
2020-04-27T06:03:00+09:00,0.8,���쓌,1.9,�쓌,8.6,91.6,0,0,0,0
2020-04-27T06:04:00+09:00,0.9,���쓌,1.9,�쓌,8.6,91.6,0,0,0,0
2020-04-27T06:05:00+09:00,1.1,���쓌,1.9,�쓌,8.6,91.6,0,0,0,0
2020-04-27T06:06:00+09:00,1.2,���쓌,1.9,�쓌,8.7,91.8,0,0,0,0
2020-04-27T06:07:00+09:00,1.3,���쓌,1.9,�쓌,8.7,92,0,0,0,0
2020-04-27T06:08:00+09:00,1.4,���쓌,2,���쓌,8.8,92,0,0,0,0
2020-04-27T06:09:00+09:00,1.5,���쓌,2.2,���쓌,8.8,92.1,0,0,0,0
2020-04-27T06:10:00+09:00,1.6,���쓌,2.2,���쓌,8.8,92,0,0,0,0
2020-04-27T06:11:00+09:00,1.7,���쓌,2.4,�쓌,8.9,92,0,0,0,0
2020-04-27T06:12:00+09:00,1.7,���쓌,2.4,�쓌,8.9,92,0,0,0,0
2020-04-27T06:13:00+09:00,1.7,���쓌,2.4,�쓌,9,92,0,0,0,0
2020-04-27T06:14:00+09:00,1.6,���쓌,2.4,�쓌,9,91.6,0,0,0,0
2020-04-27T06:15:00+09:00,1.6,�쓌,2.4,�쓌,9.1,91.6,0,0,0,0
2020-04-27T06:16:00+09:00,1.5,�쓌,2.4,�쓌,9.1,91.1,0,0,0,0
2020-04-27T06:17:00+09:00,1.5,�쓌,2.4,�쓌,9.2,90.9,0,0,0,0
2020-04-27T06:18:00+09:00,1.3,�쓌,2.4,�쓌,9.3,91,0,0,0,0
2020-04-27T06:19:00+09:00,1.2,�쓌,2.4,�쓌,9.3,90.7,0,0,0,0
2020-04-27T06:20:00+09:00,1.1,�쓌,2.4,�쓌,9.3,90.3,0,0,0,0
2020-04-27T06:21:00+09:00,1,���쓌,2.2,���쓌,9.4,90,0,0,0,0
2020-04-27T06:22:00+09:00,0.9,���쓌,1.8,���쓌,9.4,89.6,0,0,0,0
2020-04-27T06:23:00+09:00,0.8,���쓌,1.8,���쓌,9.2,88.9,0,0,0,0
2020-04-27T06:24:00+09:00,0.7,���쓌,1.7,���쓌,9,88.3,0,0,0,0
2020-04-27T06:25:00+09:00,0.7,���쓌,1.6,�쓌,9,88.9,0,0,0,0
2020-04-27T06:26:00+09:00,0.6,��,1.6,�쓌,8.9,89.7,0,0,0,0
2020-04-27T06:27:00+09:00,0.5,���k��,1.3,��,8.9,90.1,0,0,0,0
2020-04-27T06:28:00+09:00,0.5,�k,1.1,���쓌,9,90.4,0,0,0,0
2020-04-27T06:29:00+09:00,0.5,�k�k��,1.1,���쓌,9,90.7,0,0,0,0
2020-04-27T06:30:00+09:00,0.4,�k��,1,�k�k��,9,90.6,0,0,0,0
2020-04-27T06:31:00+09:00,0.4,�k��,1,�k�k��,9,90.8,0,0,0,0
2020-04-27T06:32:00+09:00,0.3,�k��,1,�k�k��,9,90.8,0,0,0,0
2020-04-27T06:33:00+09:00,0.3,�k�k��,1,�k�k��,9.1,90.7,0,0,0,0
2020-04-27T06:34:00+09:00,0.2,�É�,0.7,�k��,9.1,90.6,0,0,0,0
2020-04-27T06:35:00+09:00,0.2,�É�,0.7,�k��,9.2,90.8,0,0,0,0
2020-04-27T06:36:00+09:00,0.2,�É�,0.5,���쓌,9.3,90.7,0,0,0,0
2020-04-27T06:37:00+09:00,0.2,�É�,0.8,���쓌,9.3,90,0,0,0,0